sat.trackr.live / text

‹ back to catalog

STARLINK-37438

NORAD 69526 · 2026-133U

PAYLOAD ACTIVE UNKNOWN

§ Identity

Operator
Country
US
Launch date
2026-06-12
Launch site
AFETR
Launch vehicle
Mass (kg)
RCS (m²)

Purposes: comms

External: N2YO · Heavens-Above · Gunter

§ Orbital elements

Epoch: 2026-09-19T12:03:28.326816Z

Period
93.85 min
Inclination
53.1571°
Eccentricity
0.0001835
Mean motion
15.34399355 rev/d
Perigee alt
461.4 km
Apogee alt
464.0 km
Semi-major
6,840.8 km
B*
4.8401e-4
RAAN
234.1811°
Arg perigee
91.7843°
Mean anomaly
268.3369°
Rev number
1,661

§ Raw data

STARLINK-374381 69526U 26133U   26262.50241119  .00016011  00000+0  48401-3 0  99922 69526  53.1571 234.1811 0001835  91.7843 268.3369 15.34399355 16619

JSON: /api/v1/satellites/69526 · /tle

For live sub-satellite position, see the globe view (requires WebGL).

§ Visibility from observer

Set your observer location to see the next 7 days of passes ≥ 10°. The values pass through the URL so the page stays shareable.

No JS? Fill the form by hand. The geolocation button needs JavaScript.